DE620 EDDF-EDWN

Flight info

Callsign DE620
Flight time N/A
Altitude 24000
Route MARUN6E/07R MARUN Y152 ARPEG/N0271F260 Z850 ABILU DCT RKN
Aircraft SF50/L-BDGRSWY/LB2U2

Departure

Time N/A
Airport Frankfurt Main Airport (EDDF)

Arrival

Time 2026-04-20 14:58
Airport Flugplatz Nordhorn-Lingen (EDWN)
Time Latitude Longitude Altitude Speed Heading
2026-04-20 14:58 52.45660 7.18059 87 ft 0 kts 55°
2026-04-20 14:58 52.45689 7.18127 89 ft 47 kts 57°
2026-04-20 14:58 52.45903 7.18666 663 ft 63 kts 49°
2026-04-20 14:59 52.46099 7.19060 774 ft 34 kts 12°
2026-04-20 14:59 52.46313 7.19207 86 ft 0 kts 50°
2026-04-20 14:59 52.46284 7.19151 2039 ft 0 kts 50°
2026-04-20 14:59 52.46624 7.19593 2232 ft 58 kts 15°
2026-04-20 15:00 52.46943 7.19609 2270 ft 51 kts 320°
2026-04-20 15:00 52.47005 7.18993 2230 ft 65 kts 274°
2026-04-20 15:00 52.46934 7.18222 2158 ft 72 kts 265°
2026-04-20 15:00 52.46646 7.17644 2137 ft 68 kts 219°
2026-04-20 15:01 52.46364 7.17053 2068 ft 67 kts 257°
2026-04-20 15:01 52.46196 7.16303 2021 ft 70 kts 262°
2026-04-20 15:01 52.46055 7.15553 2060 ft 70 kts 263°
2026-04-20 15:01 52.45926 7.14804 2186 ft 67 kts 263°
2026-04-20 15:02 52.45776 7.14040 2278 ft 78 kts 252°
2026-04-20 15:02 52.45350 7.13606 2482 ft 74 kts 179°
2026-04-20 15:02 52.44993 7.13980 2438 ft 56 kts 94°
2026-04-20 15:02 52.44901 7.14638 2093 ft 63 kts 92°
2026-04-20 15:03 52.44762 7.15363 1583 ft 67 kts 95°
2026-04-20 15:03 52.44781 7.16099 1020 ft 65 kts 67°
2026-04-20 15:03 52.44971 7.16661 682 ft 47 kts 51°
2026-04-20 15:03 52.45143 7.17120 483 ft 53 kts 50°
2026-04-20 15:04 52.45341 7.17629 260 ft 55 kts 48°
2026-04-20 15:04 52.45548 7.18130 101 ft 43 kts 53°
2026-04-20 15:04 52.45610 7.18267 89 ft 0 kts 30°